SCP
0 0 0 0 0 -0 0 0 0 0 0 0 0 0 0 0 0 0 0 0 0 0 1 1 1 1 1 0 0 1 0 0 0 0 0 0 0 0 1 1 1 1 0
0 0 0 0 0 0 0 0 0 0 1 0 0 0 0 0 0 0 0 0 1 1 0 1 1 1 1 0 1 0 0 0 0 0 0 -0 -0 0 0 0 1 1 1
0 0 0 0 0 0 0 0 1 0 0 1 1 1 1 0 0 0 0 0 0 1 0 0 0 0 0 0 0 0 0 0 0 0 0 0 0 0 0 0 0 1 1
0 -0 0 0 0 0 0 0 0 0 0 0 1 1 0 0 0 0 0 0 0 0 0 0 0 0 0 0 0 0 0 0 0 0 0 -0 -0 0 0 0 0 0 1
0 -0 0 -0 0 0 0 0 0 0 -0 0 0 1 1 1 0 0 0 0 0 0 0 0 0 0 0 0 0 0 0 0 0 0 0 0 0 -0 -0 0 0 0 0
0 -0 0 0 0 0 0 0 0 1 1 1 0 1 1 1 0 0 0 0 0 0 0 0 0 0 0 0 0 0 0 0 0 0 0 0 0 -0 -0 0 0 0 0
-0 -0 -0 0 -0 0 0 0 0 0 0 0 0 0 1 1 0 0 0 0 0 0 0 0 0 0 0 0 0 0 0 0 0 0 0 0 0 -0 -0 -0 -0 0 0
-0 -0 -0 -0 -0 0 1 0 0 0 0 1 0 0 0 1 1 0 0 0 0 0 0 0 0 0 0 0 0 0 0 0 0 0 0 0 0 -0 -0 -0 -0 0 0
-0 0 0 0 0 0 0 0 0 0 0 0 1 0 0 0 0 1 1 0 0 0 0 0 0 0 0 0 0 0 0 0 0 0 0 0 0 -0 -0 -0 -0 0 0
-0 0 0 0 0 0 0 0 0 0 1 0 0 0 0 0 0 0 0 1 0 0 0 0 0 0 0 0 0 0 0 0 0 0 -0 -0 0 0 -0 -0 -0 0 0
-0 0 0 0 0 0 0 0 0 0 0 0 0 0 0 0 1 0 0 0 0 0 0 0 0 0 0 0 0 0 0 0 0 -0 -0 -0 -0 0 -0 -0 0 0 -0
-0 0 0 0 0 0 0 0 0 0 0 1 0 0 0 0 0 0 0 0 0 0 0 0 0 0 0 0 0 0 0 0 0 -0 -0 -0 -0 -0 0 -0 0 0 -0
0 -0 0 0 0 -0 0 0 0 0 0 0 0 0 0 0 0 0 0 0 0 0 0 0 0 0 0 0 0 0 0 0 -0 -0 -0 -0 -0 -0 0 -0 0 0 0
0 0 0 0 0 0 0 0 1 1 0 0 0 0 0 0 0 0 0 0 0 0 0 0 0 0 0 0 0 0 0 0 -0 0 -0 -0 -0 -0 -0 0 -0 0 0
-0 0 0 0 0 0 0 0 1 1 0 0 0 0 0 0 0 0 0 0 0 0 0 0 0 0 0 0 0 0 0 0 0 0 0 0 -0 -0 -0 0 0 0 0
0 0 0 0 0 0 0 0 1 0 0 0 0 0 0 0 0 0 0 0 0 0 0 0 0 0 0 0 0 0 0 0 0 -0 0 0 0 0 0 0 0 0 0
0 0 0 0 0 0 0 0 1 1 0 0 0 0 0 0 0 0 0 0 0 0 0 0 0 0 0 0 0 0 0 0 0 -0 0 0 0 0 0 0 0 0 0
0 0 0 0 0 0 0 1 1 1 0 0 0 0 0 0 0 0 0 0 0 0 0 0 0 0 0 0 0 0 0 0 0 -0 -0 0 0 0 0 0 0 0 0
0 0 0 0 0 0 0 1 1 1 0 0 0 0 0 0 0 0 0 0 0 0 0 0 0 0 0 0 0 0 0 0 0 -0 -0 0 0 0 0 0 0 0 0
0 0 0 0 0 0 0 1 1 0 0 0 0 0 0 0 0 0 0 0 0 0 0 0 0 0 0 0 0 0 0 0 0 -0 -0 0 0 0 0 0 0 0 0
0 0 0 0 0 0 0 1 1 0 0 0 0 0 0 0 0 0 0 0 0 0 0 0 0 0 0 0 0 0 0 0 0 0 -0 0 0 0 0 0 0 0 0
0 0 0 0 0 0 0 0 1 0 0 0 0 0 0 0 0 0 0 0 0 0 0 0 0 0 0 0 0 0 0 0 0 -0 0 0 0 0 0 0 0 0 0
0 0 0 0 0 0 0 0 0 0 0 0 0 0 0 0 0 0 0 0 0 0 0 0 0 0 0 0 0 0 0 0 0 0 0 0 0 0 0 0 0 0 0
1 1 1 1 1 0 0 0 0 0 0 0 0 0 0 0 0 0 0 0 0 0 0 0 0 0 0 0 0 0 0 0 0 0 0 0 0 0 0 0 0 0 0
2 1 1 1 1 1 0 0 0 0 0 0 0 0 0 0 0 0 0 0 0 0 0 0 0 0 0 0 0 0 0 0 0 0 0 0 0 0 0 0 0 0 0
2 1 0 1 0 1 0 0 0 0 0 0 0 0 0 0 0 0 0 0 0 0 0 0 0 0 0 0 -0 0 0 0 0 0 0 0 -0 0 0 0 0 0 0
Wind_Speed_500mb
9 14 9 8 15 18 14 18 19 19 18 18 18 17 12 14 9 18 19 22 28 28 21 12 11 16 21 27 27 33 38 34 48 49 46 59 45 45 56 52 54 52 53
12 8 13 17 15 16 16 17 17 20 21 20 23 12 6 13 10 11 21 23 22 20 27 14 11 10 14 21 18 22 23 29 35 35 35 18 55 65 61 63 58 58 55
11 11 12 14 12 13 18 18 23 21 19 21 18 18 13 15 16 18 19 27 26 21 27 18 19 18 17 16 14 6 6 6 13 16 19 33 27 50 50 51 59 57 61
13 12 10 14 14 28 14 26 23 22 20 21 20 16 20 14 18 15 14 9 11 15 26 17 19 20 20 18 20 21 18 18 15 17 24 22 32 37 39 52 68 65 64
9 5 10 15 16 18 18 24 25 20 25 18 19 15 19 13 11 13 10 13 10 11 19 18 24 23 27 22 18 17 14 12 14 15 19 24 26 35 42 41 48 59 73
8 12 11 20 23 20 20 23 25 25 23 22 17 12 2 8 8 10 13 9 9 8 6 14 23 30 30 37 27 28 23 15 11 13 17 23 27 35 39 43 49 56 88
9 12 16 18 19 21 21 23 26 26 21 22 22 16 3 5 7 10 9 8 8 8 4 9 6 9 27 36 33 37 26 18 10 7 15 19 22 30 37 47 55 61 92
9 12 15 19 26 18 10 26 27 22 21 19 25 20 15 7 5 5 6 7 9 6 6 9 10 13 13 17 35 38 35 22 12 6 7 14 20 26 28 36 38 57 78
8 10 14 17 23 24 23 22 23 20 20 21 23 16 14 20 23 5 6 4 10 7 6 11 8 14 18 16 8 32 33 28 16 9 7 9 16 14 18 19 33 48 75
6 7 11 17 21 20 29 21 20 18 22 22 17 18 13 12 12 18 13 15 11 11 9 8 10 22 14 18 22 34 33 31 21 10 10 9 13 12 16 15 28 44 74
4 2 11 15 18 19 25 23 20 20 16 17 17 14 13 12 11 19 23 22 16 7 7 11 11 10 13 10 16 33 33 31 25 14 6 5 10 11 13 15 15 31 91
5 7 7 13 18 20 20 17 17 19 20 20 11 17 14 15 17 20 23 23 22 16 10 11 10 11 12 21 19 33 27 26 29 22 9 0 8 10 8 14 20 43 97
6 12 9 10 10 19 22 21 16 18 20 18 17 12 14 13 15 17 20 25 27 22 13 12 7 10 11 14 19 27 27 25 31 19 11 2 9 8 9 11 18 52 74
12 14 6 6 8 16 15 20 14 16 22 24 21 15 10 14 15 17 19 24 28 25 16 1 9 7 13 13 26 19 25 26 31 26 16 7 10 10 13 12 13 58 63
14 22 8 8 7 14 16 17 12 19 21 21 22 21 12 14 15 16 17 19 21 27 26 5 13 12 14 11 14 12 17 21 27 32 26 12 12 16 19 26 22 38 63
21 16 14 11 11 13 11 14 15 19 19 13 9 21 11 12 15 18 19 19 18 20 23 14 17 12 12 16 9 1 18 19 22 26 29 25 11 19 22 26 33 33 57
28 23 19 17 16 13 20 13 15 18 19 18 17 18 19 16 13 14 18 17 17 20 18 24 11 19 25 11 8 8 11 12 21 24 26 23 19 15 22 29 33 36 45
32 27 22 22 20 19 15 26 15 19 18 11 17 15 13 13 18 18 14 21 23 21 20 22 18 16 17 18 11 5 5 5 11 16 18 19 19 15 21 28 34 38 40
37 29 26 24 25 22 17 24 16 23 16 15 14 12 14 14 13 15 18 20 18 18 23 21 14 19 16 11 13 3 3 3 7 12 15 15 15 16 16 26 32 38 42
41 38 32 29 28 22 17 26 21 23 17 17 14 10 10 9 12 14 18 19 22 24 21 20 18 19 19 16 6 11 6 5 4 8 10 14 15 14 18 21 29 34 39
40 41 35 33 29 24 19 30 25 24 18 17 15 8 3 8 8 10 7 18 21 23 20 19 19 17 14 12 10 8 10 12 12 10 16 25 18 18 19 21 29 33 38
41 39 38 35 29 25 28 37 34 28 19 19 14 10 7 5 4 8 13 20 28 25 25 19 20 19 21 10 9 17 10 6 10 10 15 17 17 19 21 19 28 41 36
39 41 38 34 32 26 33 29 33 33 22 18 17 9 7 2 2 6 12 23 25 31 32 24 20 22 16 12 7 1 3 5 9 17 17 20 19 22 21 21 27 47 41
44 39 36 35 32 27 35 34 32 36 28 21 19 11 17 15 4 4 7 9 12 25 33 28 38 28 25 15 12 1 2 10 15 21 17 19 14 18 23 23 29 42 48
45 37 31 30 33 31 37 41 32 36 32 24 21 15 19 15 7 4 8 5 7 18 25 32 37 32 29 17 13 8 1 6 14 21 16 18 17 22 27 25 24 37 45
41 35 31 30 29 37 40 41 34 32 33 25 23 22 19 15 12 7 9 4 6 5 13 22 35 34 34 28 14 10 6 7 17 22 20 21 23 32 26 27 23 27 39
Wind_Direction_500mb
33 31 1 28 28 5 17 5 355 350 331 354 353 356 0 357 5 341 338 328 336 348 343 332 299 281 269 267 267 263 266 272 257 281 277 267 266 233 221 221 218 216 213
32 359 17 4 20 10 18 359 5 351 355 332 360 341 18 9 35 27 2 350 344 3 354 353 339 322 301 298 290 278 280 267 258 240 251 204 231 231 219 221 218 217 212
0 30 356 23 5 13 7 348 355 350 353 350 15 8 40 30 14 21 31 2 344 14 4 48 67 58 49 28 34 38 324 289 280 261 266 240 228 227 219 232 219 213 216
6 6 336 11 3 14 3 358 351 350 353 345 332 354 338 30 6 36 10 22 6 2 358 45 38 40 36 17 359 14 360 343 324 277 266 252 247 251 245 241 225 215 209
8 43 18 2 14 5 6 355 349 353 346 2 348 8 25 4 356 346 27 34 45 2 353 19 13 7 7 9 4 346 333 334 323 310 280 261 245 234 231 232 237 235 220
10 3 358 360 2 349 344 354 348 355 347 351 334 296 286 1 359 17 2 21 32 58 51 23 359 360 355 342 341 340 328 301 297 311 285 263 248 237 233 239 254 243 216
351 340 354 348 348 338 346 350 352 355 1 349 342 336 243 47 49 20 7 357 8 11 41 34 27 37 349 348 338 346 349 330 274 299 290 280 257 241 229 236 246 237 215
336 338 347 353 345 353 2 2 345 358 355 351 358 340 338 218 312 1 336 356 347 355 346 351 15 10 7 333 332 348 356 355 319 225 323 288 258 248 247 237 239 220 207
321 327 344 352 3 359 353 354 351 358 358 2 6 12 349 347 331 286 315 295 338 274 294 323 341 344 356 339 320 338 351 1 346 270 235 320 277 249 241 256 242 211 199
276 331 345 352 359 14 348 357 350 13 5 359 1 355 6 338 346 331 299 285 318 348 259 273 302 329 2 324 333 342 357 359 355 324 248 293 317 286 254 263 261 212 203
233 250 340 353 357 10 345 355 7 18 11 4 355 351 338 325 298 318 314 314 305 283 304 313 299 313 333 306 356 331 358 10 14 0 336 312 334 313 263 324 255 218 216
278 232 343 354 355 3 346 355 9 6 9 359 0 354 343 335 326 324 319 314 319 305 310 296 300 321 336 319 330 338 1 17 17 15 349 61 13 344 323 338 212 174 167
240 247 329 349 353 355 345 351 357 9 352 354 359 359 342 342 344 336 334 327 322 306 287 292 269 327 329 321 350 344 8 14 13 18 22 18 26 36 33 108 147 162 165
248 259 292 325 339 344 330 339 348 347 346 347 350 1 13 350 351 349 344 340 337 336 356 20 324 350 335 287 317 358 9 24 30 31 29 76 59 75 61 120 104 167 171
234 271 250 284 313 325 325 328 327 338 343 352 351 352 23 345 346 350 348 347 342 334 333 26 341 27 352 349 338 319 343 26 42 41 36 53 90 89 81 85 128 136 157
240 240 257 271 285 297 293 324 326 334 342 338 340 342 14 346 359 353 356 353 350 336 324 354 354 328 342 336 332 292 358 37 47 42 38 41 85 107 105 92 98 119 120
228 239 243 255 267 276 296 302 311 308 333 327 340 343 349 2 8 3 5 7 357 356 343 339 12 330 345 326 330 71 18 48 36 42 41 42 57 120 124 125 116 115 130
235 235 235 243 255 271 277 297 291 299 320 325 328 339 354 351 43 353 19 9 356 10 6 347 342 357 2 342 347 97 78 12 25 35 29 43 60 88 136 137 145 137 132
239 232 238 239 249 264 263 278 270 292 306 303 316 335 347 1 13 5 14 26 9 7 6 357 4 6 353 357 337 13 90 23 345 41 49 48 72 86 119 145 151 157 159
246 241 228 235 250 260 259 261 274 285 292 301 303 332 355 2 17 16 9 25 11 20 0 9 10 21 10 356 16 25 49 40 67 33 28 64 85 95 122 144 154 163 168
245 244 235 236 244 251 256 253 280 278 285 295 302 326 318 348 14 48 48 29 34 25 26 21 24 12 6 28 43 5 72 46 70 65 82 100 82 87 108 134 159 156 168
242 242 242 236 235 245 253 259 277 279 272 280 279 282 274 289 9 28 30 37 35 43 37 43 24 4 6 25 42 47 55 54 74 93 106 98 105 116 118 132 151 164 155
237 244 238 234 231 232 250 256 265 268 265 269 266 266 139 182 318 36 42 39 31 38 47 34 26 17 1 17 103 100 54 67 116 130 121 106 103 121 118 123 142 161 157
240 237 240 232 229 228 248 256 260 250 258 259 258 226 193 261 235 83 110 73 45 48 41 41 24 20 31 56 78 342 94 80 114 144 144 111 110 106 126 120 138 160 168
238 234 230 229 227 227 235 249 250 242 251 251 249 226 223 236 229 185 137 119 53 358 21 25 21 27 34 69 78 49 124 61 117 161 155 142 132 134 134 131 131 153 169
232 231 229 229 230 232 237 245 238 226 245 239 235 230 223 233 218 199 138 111 41 54 3 19 17 18 17 14 96 126 74 88 127 139 165 150 148 140 133 146 136 146 162
Wind_Speed_850mb
9 14 9 8 15 18 14 18 19 19 18 18 18 17 12 14 9 18 19 22 28 28 21 12 11 16 21 27 27 33 38 34 48 49 46 59 45 45 56 52 54 52 53
12 8 13 17 15 16 16 17 17 20 21 20 23 12 6 13 10 11 21 23 22 20 27 14 11 10 14 21 18 22 23 29 35 35 35 18 55 65 61 63 58 58 55
11 11 12 14 12 13 18 18 23 21 19 21 18 18 13 15 16 18 19 27 26 21 27 18 19 18 17 16 14 6 6 6 13 16 19 33 27 50 50 51 59 57 61
13 12 10 14 14 28 14 26 23 22 20 21 20 16 20 14 18 15 14 9 11 15 26 17 19 20 20 18 20 21 18 18 15 17 24 22 32 37 39 52 68 65 64
9 5 10 15 16 18 18 24 25 20 25 18 19 15 19 13 11 13 10 13 10 11 19 18 24 23 27 22 18 17 14 12 14 15 19 24 26 35 42 41 48 59 73
8 12 11 20 23 20 20 23 25 25 23 22 17 12 2 8 8 10 13 9 9 8 6 14 23 30 30 37 27 28 23 15 11 13 17 23 27 35 39 43 49 56 88
9 12 16 18 19 21 21 23 26 26 21 22 22 16 3 5 7 10 9 8 8 8 4 9 6 9 27 36 33 37 26 18 10 7 15 19 22 30 37 47 55 61 92
9 12 15 19 26 18 10 26 27 22 21 19 25 20 15 7 5 5 6 7 9 6 6 9 10 13 13 17 35 38 35 22 12 6 7 14 20 26 28 36 38 57 78
8 10 14 17 23 24 23 22 23 20 20 21 23 16 14 20 23 5 6 4 10 7 6 11 8 14 18 16 8 32 33 28 16 9 7 9 16 14 18 19 33 48 75
6 7 11 17 21 20 29 21 20 18 22 22 17 18 13 12 12 18 13 15 11 11 9 8 10 22 14 18 22 34 33 31 21 10 10 9 13 12 16 15 28 44 74
4 2 11 15 18 19 25 23 20 20 16 17 17 14 13 12 11 19 23 22 16 7 7 11 11 10 13 10 16 33 33 31 25 14 6 5 10 11 13 15 15 31 91
5 7 7 13 18 20 20 17 17 19 20 20 11 17 14 15 17 20 23 23 22 16 10 11 10 11 12 21 19 33 27 26 29 22 9 0 8 10 8 14 20 43 97
6 12 9 10 10 19 22 21 16 18 20 18 17 12 14 13 15 17 20 25 27 22 13 12 7 10 11 14 19 27 27 25 31 19 11 2 9 8 9 11 18 52 74
12 14 6 6 8 16 15 20 14 16 22 24 21 15 10 14 15 17 19 24 28 25 16 1 9 7 13 13 26 19 25 26 31 26 16 7 10 10 13 12 13 58 63
14 22 8 8 7 14 16 17 12 19 21 21 22 21 12 14 15 16 17 19 21 27 26 5 13 12 14 11 14 12 17 21 27 32 26 12 12 16 19 26 22 38 63
21 16 14 11 11 13 11 14 15 19 19 13 9 21 11 12 15 18 19 19 18 20 23 14 17 12 12 16 9 1 18 19 22 26 29 25 11 19 22 26 33 33 57
28 23 19 17 16 13 20 13 15 18 19 18 17 18 19 16 13 14 18 17 17 20 18 24 11 19 25 11 8 8 11 12 21 24 26 23 19 15 22 29 33 36 45
32 27 22 22 20 19 15 26 15 19 18 11 17 15 13 13 18 18 14 21 23 21 20 22 18 16 17 18 11 5 5 5 11 16 18 19 19 15 21 28 34 38 40
37 29 26 24 25 22 17 24 16 23 16 15 14 12 14 14 13 15 18 20 18 18 23 21 14 19 16 11 13 3 3 3 7 12 15 15 15 16 16 26 32 38 42
41 38 32 29 28 22 17 26 21 23 17 17 14 10 10 9 12 14 18 19 22 24 21 20 18 19 19 16 6 11 6 5 4 8 10 14 15 14 18 21 29 34 39
40 41 35 33 29 24 19 30 25 24 18 17 15 8 3 8 8 10 7 18 21 23 20 19 19 17 14 12 10 8 10 12 12 10 16 25 18 18 19 21 29 33 38
41 39 38 35 29 25 28 37 34 28 19 19 14 10 7 5 4 8 13 20 28 25 25 19 20 19 21 10 9 17 10 6 10 10 15 17 17 19 21 19 28 41 36
39 41 38 34 32 26 33 29 33 33 22 18 17 9 7 2 2 6 12 23 25 31 32 24 20 22 16 12 7 1 3 5 9 17 17 20 19 22 21 21 27 47 41
44 39 36 35 32 27 35 34 32 36 28 21 19 11 17 15 4 4 7 9 12 25 33 28 38 28 25 15 12 1 2 10 15 21 17 19 14 18 23 23 29 42 48
45 37 31 30 33 31 37 41 32 36 32 24 21 15 19 15 7 4 8 5 7 18 25 32 37 32 29 17 13 8 1 6 14 21 16 18 17 22 27 25 24 37 45
41 35 31 30 29 37 40 41 34 32 33 25 23 22 19 15 12 7 9 4 6 5 13 22 35 34 34 28 14 10 6 7 17 22 20 21 23 32 26 27 23 27 39
Wind_Direction_850mb
33 31 1 28 28 5 17 5 355 350 331 354 353 356 0 357 5 341 338 328 336 348 343 332 299 281 269 267 267 263 266 272 257 281 277 267 266 233 221 221 218 216 213
32 359 17 4 20 10 18 359 5 351 355 332 360 341 18 9 35 27 2 350 344 3 354 353 339 322 301 298 290 278 280 267 258 240 251 204 231 231 219 221 218 217 212
0 30 356 23 5 13 7 348 355 350 353 350 15 8 40 30 14 21 31 2 344 14 4 48 67 58 49 28 34 38 324 289 280 261 266 240 228 227 219 232 219 213 216
6 6 336 11 3 14 3 358 351 350 353 345 332 354 338 30 6 36 10 22 6 2 358 45 38 40 36 17 359 14 360 343 324 277 266 252 247 251 245 241 225 215 209
8 43 18 2 14 5 6 355 349 353 346 2 348 8 25 4 356 346 27 34 45 2 353 19 13 7 7 9 4 346 333 334 323 310 280 261 245 234 231 232 237 235 220
10 3 358 360 2 349 344 354 348 355 347 351 334 296 286 1 359 17 2 21 32 58 51 23 359 360 355 342 341 340 328 301 297 311 285 263 248 237 233 239 254 243 216
351 340 354 348 348 338 346 350 352 355 1 349 342 336 243 47 49 20 7 357 8 11 41 34 27 37 349 348 338 346 349 330 274 299 290 280 257 241 229 236 246 237 215
336 338 347 353 345 353 2 2 345 358 355 351 358 340 338 218 312 1 336 356 347 355 346 351 15 10 7 333 332 348 356 355 319 225 323 288 258 248 247 237 239 220 207
321 327 344 352 3 359 353 354 351 358 358 2 6 12 349 347 331 286 315 295 338 274 294 323 341 344 356 339 320 338 351 1 346 270 235 320 277 249 241 256 242 211 199
276 331 345 352 359 14 348 357 350 13 5 359 1 355 6 338 346 331 299 285 318 348 259 273 302 329 2 324 333 342 357 359 355 324 248 293 317 286 254 263 261 212 203
233 250 340 353 357 10 345 355 7 18 11 4 355 351 338 325 298 318 314 314 305 283 304 313 299 313 333 306 356 331 358 10 14 0 336 312 334 313 263 324 255 218 216
278 232 343 354 355 3 346 355 9 6 9 359 0 354 343 335 326 324 319 314 319 305 310 296 300 321 336 319 330 338 1 17 17 15 349 61 13 344 323 338 212 174 167
240 247 329 349 353 355 345 351 357 9 352 354 359 359 342 342 344 336 334 327 322 306 287 292 269 327 329 321 350 344 8 14 13 18 22 18 26 36 33 108 147 162 165
248 259 292 325 339 344 330 339 348 347 346 347 350 1 13 350 351 349 344 340 337 336 356 20 324 350 335 287 317 358 9 24 30 31 29 76 59 75 61 120 104 167 171
234 271 250 284 313 325 325 328 327 338 343 352 351 352 23 345 346 350 348 347 342 334 333 26 341 27 352 349 338 319 343 26 42 41 36 53 90 89 81 85 128 136 157
240 240 257 271 285 297 293 324 326 334 342 338 340 342 14 346 359 353 356 353 350 336 324 354 354 328 342 336 332 292 358 37 47 42 38 41 85 107 105 92 98 119 120
228 239 243 255 267 276 296 302 311 308 333 327 340 343 349 2 8 3 5 7 357 356 343 339 12 330 345 326 330 71 18 48 36 42 41 42 57 120 124 125 116 115 130
235 235 235 243 255 271 277 297 291 299 320 325 328 339 354 351 43 353 19 9 356 10 6 347 342 357 2 342 347 97 78 12 25 35 29 43 60 88 136 137 145 137 132
239 232 238 239 249 264 263 278 270 292 306 303 316 335 347 1 13 5 14 26 9 7 6 357 4 6 353 357 337 13 90 23 345 41 49 48 72 86 119 145 151 157 159
246 241 228 235 250 260 259 261 274 285 292 301 303 332 355 2 17 16 9 25 11 20 0 9 10 21 10 356 16 25 49 40 67 33 28 64 85 95 122 144 154 163 168
245 244 235 236 244 251 256 253 280 278 285 295 302 326 318 348 14 48 48 29 34 25 26 21 24 12 6 28 43 5 72 46 70 65 82 100 82 87 108 134 159 156 168
242 242 242 236 235 245 253 259 277 279 272 280 279 282 274 289 9 28 30 37 35 43 37 43 24 4 6 25 42 47 55 54 74 93 106 98 105 116 118 132 151 164 155
237 244 238 234 231 232 250 256 265 268 265 269 266 266 139 182 318 36 42 39 31 38 47 34 26 17 1 17 103 100 54 67 116 130 121 106 103 121 118 123 142 161 157
240 237 240 232 229 228 248 256 260 250 258 259 258 226 193 261 235 83 110 73 45 48 41 41 24 20 31 56 78 342 94 80 114 144 144 111 110 106 126 120 138 160 168
238 234 230 229 227 227 235 249 250 242 251 251 249 226 223 236 229 185 137 119 53 358 21 25 21 27 34 69 78 49 124 61 117 161 155 142 132 134 134 131 131 153 169
232 231 229 229 230 232 237 245 238 226 245 239 235 230 223 233 218 199 138 111 41 54 3 19 17 18 17 14 96 126 74 88 127 139 165 150 148 140 133 146 136 146 162